CAPE
1478 1612 1969 2158 2178 2132 2308 2507 2414 2434 2414 2096 1990 1909 1753 1699 1608 1426 1550 1676 1704 1786 2111 2123 2506 2622 2937 3102 3040 2971 2929 2788 2377 2279 2181 2602 2724 2528 2606 2838 2740 2593 2455 2379 2291 2227 2388 2432 2430 2543 2409 2949 3036 3087 3053 2909 2806 2777 2610 2564 2868 3001 3313 3100 3232 3301 3124 3031 3052 3057 3028 3019 3010 2888 2597 2585 2646 2490 2581 2730 2606 2494 2392 2516 2737
1468 1847 1893 2154 2159 2232 2505 2694 2636 2530 2483 2318 1931 1843 1705 1590 1468 1472 1643 1640 1772 1815 1960 2052 2447 2603 2730 3014 2951 3092 2959 2729 2526 2527 2581 2511 2393 2436 2703 2774 2462 2292 2565 2510 2356 2300 2442 2467 2444 2460 2465 2517 2610 2858 2947 2844 2812 2809 2666 3164 3045 2739 2834 3060 2973 2895 2899 2977 2978 3024 3102 2978 2856 2769 2805 2888 2530 2479 2568 2164 2517 2242 2437 2702 2649
1715 1976 2120 2306 2260 2398 2620 2756 2773 2593 2604 2229 1941 1736 1519 1376 1544 1878 1878 1727 1878 2070 1803 2398 2695 2840 2864 2960 3015 3058 2980 2873 2751 2710 2663 2611 2490 2346 2510 2510 2513 2206 2080 2510 2483 2452 2626 2586 2431 2291 2479 2433 2158 2612 2625 2976 2566 2906 2883 2822 2762 2791 2998 3047 2985 2718 2749 3004 3082 3141 2864 2887 2696 2746 2573 2606 2672 2430 2843 2836 2879 2700 2724 2724 2779
1779 2008 2024 2352 2382 2453 2499 2738 2766 2685 2438 2416 2044 1986 1846 1647 1719 2086 2287 2399 2310 2107 2165 2567 2880 2815 2766 2795 2759 2584 2674 2578 2748 2876 2717 2716 2572 2216 2614 2713 2610 2461 2447 2314 2359 2427 2862 3033 3241 3201 3246 3057 2696 2773 2861 2705 2538 2996 3008 2975 2854 2805 3170 3182 2778 2744 2684 2614 2816 2770 2755 2532 2875 2574 2443 2518 2436 2471 2948 2862 2740 2642 2654 2568 2656
1362 1725 2192 2365 2268 2394 2309 2410 2549 2437 2525 2328 1956 1851 1954 1767 1976 2234 2570 2490 2366 2320 2362 2640 2820 2767 2552 2551 2615 2585 2575 2606 2898 2792 2760 2583 2415 2527 2498 2523 2548 2505 2595 2432 2469 2490 2975 3193 3064 2880 3086 3260 3036 2875 2446 2797 2777 2875 3041 2776 2647 2923 3060 2810 2724 2608 2525 2587 2375 2605 2456 2568 2818 3113 2855 2526 2395 2623 2972 2908 2945 2879 2780 2601 2672
992 1386 1906 1909 2285 2394 2378 2387 2335 2338 2266 2093 1894 2071 2008 2238 2266 2518 2594 2702 2738 2604 2654 2374 2381 2670 2813 2741 2458 2318 2706 2860 2826 2889 2742 2555 2431 2512 2566 2368 2603 2709 2467 2401 2337 2570 2452 2803 2982 2872 3186 3236 3273 3233 2768 2698 2973 2998 3113 3074 3122 3145 3075 2702 2328 2677 2649 2043 2322 2503 2470 2442 2514 2364 2662 2516 2354 2425 2510 2376 2394 2463 2548 2624 2582
848 1004 1341 1954 2159 2349 2507 2440 2400 2422 2336 2520 2402 2353 2570 2458 2400 2485 2408 2574 2696 2454 2364 2474 2393 2239 2302 2456 2403 2494 2658 2614 2523 2710 2744 2568 2314 2387 2434 2522 2884 2816 2626 2526 2508 2522 2351 2532 2969 3075 2936 2950 2910 2970 2688 2570 2832 3144 3349 3445 3437 2904 2813 2777 2837 2732 2250 2423 2400 2196 2381 2381 2423 2242 2641 2616 2581 2423 2432 2300 2315 2276 2197 2067 2412
700 697 1209 1713 2337 2493 2536 2276 2479 2499 2615 2857 2996 2740 2690 2643 2667 2363 2460 2607 2025 2238 2094 2287 2150 2238 2063 2451 2096 2551 2535 2156 2423 2633 2650 2577 2260 2642 2405 2609 2658 2644 2344 2123 2216 2237 2274 2490 2708 2848 2750 2931 2784 2887 2599 2644 3112 3277 3335 3359 3404 2764 2716 2967 2983 2297 2628 2728 2737 2644 1956 2008 2200 2161 2297 2382 2648 2588 2575 2440 2358 2338 2464 1817 1788
1080 944 1138 1516 2012 2361 2384 2452 2542 2688 2674 2524 2382 2388 2529 2566 2524 2460 2125 2024 2257 2347 2282 2440 2194 2022 2183 1994 2478 2542 2578 2416 2554 2409 2606 2285 2328 2436 2492 2439 2501 2364 2182 2143 2071 2206 2287 2308 2456 2669 2671 2617 2710 2811 2912 3110 3235 3266 3277 3308 3258 3081 2610 2407 2296 2677 3014 2580 2595 2598 1829 1658 1852 1886 2068 2518 2581 2584 2238 2447 2336 2600 2632 2604 2577
1098 911 1200 1702 1976 2641 2752 2740 2706 2558 2436 2405 2224 2172 2193 2372 2339 2110 2180 2524 2347 2234 2165 2169 2161 1789 2357 2119 2324 2438 2376 2580 2627 2478 2015 2178 2432 2369 2470 2181 2536 2526 2448 2245 2224 2303 2325 2397 2552 2645 2669 2494 2239 2614 3011 3270 3279 3205 3130 3094 2966 2877 2981 2564 2500 2240 2975 2604 2738 1881 1872 1964 1881 2040 2421 2652 2624 2461 2356 2406 2429 2404 2352 2428 2460
573 773 1238 1570 2270 2692 2838 2747 2666 2559 2504 2386 2309 2311 2266 2202 2210 2124 2221 2437 2424 2126 2013 2087 1914 1722 1966 2073 2349 2517 2496 2265 2188 2222 2102 2138 2424 2496 2314 2238 2339 2664 2722 2874 2461 2480 2347 2366 2462 2371 2331 2407 2588 2762 2886 3108 3173 3304 3186 2908 2671 2443 2542 2345 2148 2389 2158 2408 2147 1892 2014 2373 2038 2058 2381 2358 2331 2285 2210 2374 2383 2382 2271 2185 2216
770 1548 2057 2440 2958 2698 2650 2616 2584 2430 2329 2217 2039 2024 2054 2104 2083 2004 2088 2288 2260 2058 1974 2066 2127 2049 1685 1695 2079 2126 1993 1930 1857 2377 1848 2378 2291 2320 2234 2129 2412 2844 2808 2785 2717 2712 2531 2604 2654 2650 2581 2817 2829 2866 3054 3213 3208 3251 3205 2884 2386 2339 2372 2721 2626 2964 1894 1839 1918 1376 1235 1567 1878 2071 2307 2254 2227 2150 2416 2375 2372 2325 2253 2240 2217
1220 1708 2164 2438 2652 2734 2536 2454 2306 2262 2194 2018 2001 2001 1972 1866 1888 1829 1912 2274 2168 2112 2016 2040 2112 2152 2019 1916 1909 1824 1738 1890 2213 2240 2023 2128 2252 2322 2110 2012 2249 2645 2642 2573 2630 2587 2558 2640 2787 2800 2576 2639 2928 3064 3111 3081 2922 2946 2830 2482 1904 2786 3051 2559 2330 2392 2467 2173 1779 1724 1818 1889 1828 2414 2188 2221 2287 2231 2328 2298 2428 2342 2296 2316 2407
1077 1484 1778 2216 2472 2697 2488 2379 2276 2133 2078 1908 1796 1929 1801 1714 1863 1716 1938 1870 1788 1598 1439 1646 1371 1630 1820 2128 2074 2170 1626 1970 2042 1993 1997 2174 1881 2056 2066 2006 1956 1933 2489 2555 2591 2703 2756 2712 2666 2570 2618 2695 2807 2870 2842 2737 2683 2539 2504 2489 2257 2131 2913 2328 2256 2932 2366 2000 1995 1611 2066 2147 1938 2462 2121 2035 2202 2202 2098 2073 2298 2347 2388 2360 2391
1190 1366 1738 2008 2066 2328 2468 2162 2206 2144 2058 2059 2060 1988 2000 1950 1966 1828 1655 1536 1666 1614 1704 1647 1591 1563 1556 1859 2052 1902 1805 2103 2242 2141 2284 2227 2092 1983 1915 2013 2007 2078 2400 2538 2684 2702 2801 2970 2821 2572 2592 2640 2592 2499 2178 2048 2140 2279 2450 2509 2340 2435 2710 1441 1457 1950 1598 1942 1943 1638 1875 2039 2258 2197 2186 2205 2230 2100 2143 2224 2202 2347 2404 2434 2441
1163 1685 1698 1988 2220 2312 2271 2413 2104 2210 2259 2162 2105 2135 1912 1987 1920 1688 1538 1537 1586 1325 1626 1652 1652 1426 1656 1627 1785 1829 1692 2115 2061 1919 2164 2188 2145 2042 2021 2063 2021 2168 2305 2500 2665 2749 2856 2924 2940 2722 2633 2508 2423 2370 2228 2067 2036 2114 2272 2520 2774 3097 3657 3156 1834 2114 1793 1682 1823 2032 1809 2154 2338 2368 2431 2322 2330 2355 2356 2320 2285 2298 2334 2410 2326
1303 1861 1807 1836 1832 1976 2038 2098 2098 2176 2203 2087 2112 2066 2044 2011 1854 1708 1691 1688 1746 1711 1520 1382 1453 1312 1496 1600 1797 1925 2034 1948 2028 1972 2044 1848 2114 2254 2100 2045 2108 2060 2077 2230 2499 2588 2624 2710 2974 3076 3048 2868 2636 2420 2512 2314 2014 2070 2430 2656 2736 3226 3356 3988 1035 1416 1629 1788 1609 1748 1940 1994 2321 2348 2380 2308 2414 2352 2310 2234 2178 2140 2208 2271 2304
1295 1205 1440 1236 1692 1840 1987 2157 2148 1895 1815 1895 2018 2099 2016 1874 1791 1679 1646 1698 1709 1706 1698 1607 1511 1465 1494 1533 1836 1844 1980 2117 1843 2120 2046 2060 2003 2250 2147 2185 2283 2212 2177 2281 2509 2455 2398 2494 2824 2771 3081 3056 3089 2849 2700 2502 2298 2113 2379 2526 2740 3320 3788 4051 1363 1366 1365 1610 1574 2077 2147 2251 2426 2306 2303 2346 2584 2502 2378 2246 2252 2272 2177 2227 2218
1176 1335 1083 1491 1627 1410 1868 2151 2146 1976 1857 1874 1772 1729 1825 1793 1862 1730 1684 1793 1881 1774 1791 1658 1495 1555 1806 1644 1690 2020 2052 1904 2071 1856 2074 1998 1908 2128 2157 2166 2337 2344 2455 2324 2338 2398 2645 2482 2618 3018 3112 3275 3257 3210 2758 2649 2664 2452 2447 2790 3185 3596 4227 3903 864 1229 1560 1382 1718 2032 2178 2596 2318 2293 2279 2233 2194 2206 2166 2304 2091 1962 1963 1960 2055
1249 1385 1270 1440 1946 1934 2163 2158 2040 1906 1908 1937 1756 1729 1709 1749 1896 2016 2020 1862 2028 1973 1701 1424 1828 1933 1801 1643 1755 1834 1935 2048 2214 1832 2135 1892 2186 2071 2244 2351 2320 2329 2346 2230 2205 2260 2454 2630 2740 2920 2892 2939 2844 2932 3181 2530 2506 2750 2770 2864 2849 3691 3693 768 648 1042 953 1464 1830 1980 2515 2333 2327 2220 2199 2152 2175 2184 2136 2154 2082 2007 1898 1902 1898
1077 1400 1676 1532 1515 1864 2247 2294 2200 1837 1795 1851 1824 1696 1525 1659 1872 1951 2048 2115 1924 1684 1415 1489 1747 1793 1558 1568 1802 1878 1804 2002 2146 1988 2228 2101 2256 2275 2384 2546 2504 2422 2237 2186 2062 2231 2528 2668 2852 2922 2873 2792 2765 2816 2823 2975 2169 2716 2422 2918 3047 3410 1241 1082 949 1475 1448 1623 2160 2184 2527 2288 2155 2179 2197 2180 2190 2172 2148 2065 1903 1906 2036 1800 1783
1304 1450 1921 1831 1877 1929 1896 1942 2135 2256 2004 1914 1771 1715 1810 1464 2042 2033 1988 1876 1678 1470 1212 1210 1412 1690 1808 1862 1914 1834 2039 2126 2154 2290 2290 2265 2296 2324 2390 2462 2169 2248 2179 2076 2270 2486 2627 2863 2756 2816 2807 2976 2878 2589 2549 2488 2895 2718 3152 2842 3053 2808 1363 1268 1145 1566 1500 1590 2140 2398 2474 2293 2232 2210 2237 2162 2184 2094 2172 2200 2005 1975 1962 1936 1891
1508 1517 1496 2026 1854 2014 2082 1981 2282 2338 1958 1863 1804 1889 1728 1869 1654 1738 1825 1816 1794 1273 1272 1258 1490 1673 1826 1820 2122 2008 2110 2219 2335 2206 1942 2216 1917 2239 2378 2412 2304 2254 2292 2396 2526 2600 2598 2543 2815 2834 2984 2929 2895 3384 2252 2034 2303 2968 3070 3026 3221 2072 1267 1347 1137 1473 1626 1762 1968 2449 2426 2327 2246 2302 2264 2196 2012 2161 2035 2163 1994 1986 2088 1800 2100
1256 1276 1538 1707 2066 1766 1760 1789 2091 2207 2525 2310 2012 1997 1941 2276 2054 1966 1802 1734 1567 1926 1796 1337 1340 1370 1675 1845 1790 2107 2112 2361 2042 2236 2216 2131 2146 2277 2486 2455 2256 2341 2492 2432 2516 2450 2576 2707 2602 2862 3196 3108 3404 3598 3288 2700 2312 2828 3230 3398 1581 1132 1500 1194 1044 1709 1650 1667 2368 2725 2634 2484 2324 2278 2248 2196 2365 2230 2184 1858 2282 2127 2267 2316 2052
904 1361 1649 1342 1364 1854 1834 1816 1848 1842 1975 2057 2231 2335 2592 2350 1527 1428 1765 1861 1859 1655 1823 1644 1232 1666 1814 1927 2164 2196 2149 2195 2187 2301 2221 2314 2382 2470 2430 2308 2306 2358 2300 2354 2352 2536 2307 2343 2769 2906 3132 3292 3209 3598 2535 1979 2386 2616 2424 805 1177 1248 501 938 1369 1489 1760 2115 2678 2815 2785 2564 2616 2464 2458 2464 2434 2415 2316 1981 2272 2270 2340 2180 2298
592 1120 1618 1566 1076 1613 1740 1672 1598 1787 2086 2335 2048 2458 2348 2310 2115 1748 1850 2026 1941 1889 2072 1633 2062 2044 1862 1987 2203 2423 2366 2367 2358 2482 2391 2346 2365 2446 2530 2634 2694 2553 2670 2635 2334 2630 2993 2470 2619 2590 2932 3180 2688 2287 2080 860 484 303 534 400 638 1157 725 773 1479 2144 1972 2205 2840 2888 2778 2809 2560 2790 2678 2723 2627 2550 2550 2203 2221 2096 2246 2211 2235
420 905 1558 1512 1346 1359 1628 1440 1429 1674 1778 1941 2065 2071 1899 2250 2019 1807 1873 2101 1665 2034 1919 1894 2214 2536 2241 2039 1947 1983 2263 2249 2191 2296 2302 2235 2172 2176 2171 2202 2303 2336 2492 2202 2216 2604 2583 2658 2839 2650 2639 2163 1759 693 1288 508 770 580 551 504 847 805 806 680 1218 2198 2110 2197 2686 3035 2886 2760 2565 2600 2807 2607 2679 2649 2841 2438 2145 2278 2223 2261 2142
340 603 1319 1086 1200 1130 1591 1450 1607 1797 1615 1791 1770 1972 2121 1613 1857 2211 2634 2390 2012 1781 1646 1833 2200 2506 2667 2884 2258 2056 2012 2453 2216 2917 2236 2192 2154 2146 2051 1956 2205 2530 2724 2274 2127 2548 2773 2976 2585 2353 2281 1932 450 503 389 588 599 498 736 631 460 861 497 728 897 2296 2180 1986 2770 3158 3003 2903 2588 2832 2486 2562 2288 2607 2470 2376 2353 2507 2381 2178 2148
174 366 684 930 1121 1284 1471 1292 1368 1657 1770 1218 1566 1762 1897 1834 2079 2022 1960 2447 2117 2063 1859 2049 1942 2219 2768 2903 2171 1985 2055 1789 1750 2251 2418 2057 2122 1970 1913 1895 2028 2230 2864 2678 2431 2850 3019 3134 2868 1935 1589 1432 798 613 903 480 526 516 454 592 428 734 756 762 959 2110 2377 2191 2361 2963 3016 3028 2914 2654 2914 2622 2522 2400 2473 2169 2234 2203 2264 2405 2495
233 310 579 1044 971 1348 1748 1486 1495 1607 1430 1465 1078 1346 1572 1961 1536 2396 2777 2182 1998 2071 2431 2190 2056 2083 2302 2846 2302 1376 1404 1378 1488 1776 1918 1930 1973 1820 1732 1723 1970 2285 2732 2855 2847 3126 2976 2634 2306 2239 1104 885 1157 1242 1966 541 516 610 701 686 430 50 616 831 743 250 2718 2815 2353 2597 3141 2771 2947 2842 2898 2755 2412 2638 2458 2661 2738 2670 2646 2933 2852
213 427 354 460 848 747 1340 1271 1292 1400 1138 907 929 894 1501 1758 1802 1746 1860 1784 2203 2223 2393 2057 1803 2021 2486 3135 2939 2737 1199 1341 1315 1622 2235 2054 2298 2053 1504 1768 2239 2048 2261 2474 2462 2397 2518 2988 3241 2740 2816 2478 1989 1514 2049 838 702 649 776 483 713 1058 830 922 889 631 1176 2448 1825 2470 2883 2846 3108 2811 2801 2746 2746 2524 2678 2928 2997 3140 2883 2977 3154
424 439 350 604 472 449 759 1049 978 997 1454 1065 1000 1236 1915 1882 2217 1836 2123 2004 2090 1742 1767 1814 2018 2104 2175 2842 3166 2707 2714 1418 1786 1818 1877 2007 1858 1808 1822 1919 1725 1828 2028 1280 1907 2460 2938 2950 3390 3006 2703 2364 2042 1575 2105 1048 901 552 788 626 766 872 1316 1123 1042 663 336 1930 2338 1838 2592 2452 2811 3070 2950 3059 2972 3005 3128 2973 2944 3101 3281 3148 3110
263 328 414 275 400 444 495 720 1349 1646 1555 1574 1717 2290 1912 1796 1784 1442 1841 1550 1823 1706 1530 1610 1907 2158 2786 2867 3178 3172 2517 2166 2527 1914 1990 1778 1603 1957 1736 1630 1582 2120 2368 2184 2046 2495 2509 2826 3003 3001 3870 2221 1906 1535 1226 801 574 903 554 612 361 772 696 526 432 41 310 964 2183 2090 2590 2028 2490 2830 3078 3234 3371 3328 3083 3212 3280 3132 3086 3220 3272
369 334 362 328 374 429 450 524 856 1254 1372 971 1772 1886 1584 1359 1408 1414 2000 1646 1245 1057 1470 1648 2109 2410 2529 2533 2435 2517 2619 2632 2482 2540 1940 1928 1976 2028 1812 1933 2768 2528 2525 3139 3369 3326 2899 2822 2755 3062 2142 2555 1304 1239 1340 752 651 768 536 563 755 904 1007 888 670 744 1001 1040 1454 2958 2971 2672 2540 2740 3077 3238 3287 3331 3503 3283 3229 3231 3098 3127 3154
335 244 300 366 460 464 422 474 617 883 1181 1318 1425 1566 1581 1124 1177 1545 1542 1442 991 917 993 1432 1755 1979 2228 2559 2720 2735 2334 2542 2506 2771 1909 2124 1390 1539 1764 2127 2530 2921 3182 3988 3708 3639 3270 2762 3138 2708 1922 2098 930 1300 1019 684 560 931 1589 1440 483 1316 1544 844 553 1028 1037 451 1202 1074 2170 3402 3458 3131 2890 3034 3408 3490 3160 3304 3266 3269 3327 3461 3670
176 251 357 342 355 448 544 482 580 718 1082 1506 1628 1746 1272 1527 1636 1678 1221 1098 828 696 798 779 972 1435 2094 2532 2749 2710 2574 2019 2394 3053 2172 1962 1450 1592 2551 2578 3150 3420 3144 4478 3950 3356 3032 3982 3273 2745 3102 2810 2500 754 1161 1566 1012 642 742 668 678 1153 554 1227 1060 341 451 1113 1134 1064 2408 2548 3476 4122 3916 2888 2698 3040 3709 3640 3551 3353 3482 3530 3831
244 463 318 385 417 610 515 454 576 778 868 1021 1782 2083 2129 1841 1605 1192 951 959 416 473 538 421 640 935 1568 2244 2613 3040 2844 2355 2254 2088 3198 1599 2026 1994 2152 2349 3382 3707 5078 3965 3826 2900 3211 2255 4683 4071 3282 4316 3163 987 768 1334 824 583 756 338 682 2076 827 2000 1609 749 1108 864 875 1145 1320 1615 2789 2558 2970 3435 3158 2996 3256 3721 3692 3895 3597 3938 4070
254 488 386 494 538 788 473 543 582 708 1388 1644 2080 2000 1582 1903 1710 1363 1667 657 254 298 226 318 496 810 1432 2322 2849 2956 2966 2595 2542 3426 3994 2203 1638 1834 2313 3638 4028 4451 4285 3332 3773 2610 3442 3146 3786 5062 4073 4389 3804 1655 766 853 607 512 849 671 554 872 884 1480 1430 1896 1061 1269 1377 787 1434 1652 1320 1817 2143 3489 3760 2915 2867 2894 3639 3782 4360 4228 4181
219 391 520 987 536 720 939 1192 623 1039 1316 1962 2388 2046 1868 2274 974 1331 1448 1221 912 466 472 539 519 693 1018 2213 2941 2818 3116 2713 2809 3330 4424 3012 2803 2704 3270 3820 4092 4409 4130 3317 3140 3515 3648 3260 3416 4360 5250 4572 3798 3085 1650 1810 926 465 482 473 1048 1453 1346 913 994 2060 1040 662 509 650 942 1039 1372 2013 1132 1435 3393 3207 2857 3005 2954 3264 3429 3753 4432
234 395 1092 892 1070 1094 830 1472 1384 841 1356 1707 1962 1612 1432 1626 1188 1468 1688 1603 739 936 872 483 489 899 1620 2086 2860 3175 3089 3272 2984 3320 4226 3980 2820 3220 3656 3204 3793 4543 4514 3272 3503 3799 4123 3733 3526 3393 3956 4075 3334 2793 1062 1441 1204 837 1133 580 1232 1270 1596 764 1146 821 1090 473 576 1021 745 763 648 750 1178 1222 1879 2462 3596 3688 3559 3661 3868 3670 3619
386 453 580 814 1093 1190 1409 1450 1449 1435 1520 1664 1669 1300 1454 1635 1476 1070 1524 1607 1054 884 506 535 682 974 1624 2035 2767 2470 3185 3041 3007 2902 3714 3942 3579 4168 3906 3602 3684 4348 4392 4346 3156 3574 3646 4347 4356 5523 3718 3736 2861 1815 348 800 1949 1370 2162 1334 1427 1042 880 1524 1034 614 470 363 945 1020 1362 601 1014 1242 1692 1150 1766 1672 2753 3647 3834 4015 4689 4896 3566
472 479 842 1374 1462 1252 1207 1207 1536 1606 1478 1349 1778 1506 1836 1606 1628 1366 1155 1615 1811 1705 1200 686 874 1008 2517 2682 2918 2566 3022 3232 3314 3104 3262 3494 4063 3662 4035 3796 3952 4177 4212 3719 3736 3670 3894 4298 4189 5223 4640 3676 2719 1476 1611 1911 2202 1122 1761 1189 1239 1469 1029 808 1067 742 568 521 331 861 182 531 737 711 489 814 825 1509 1486 1634 1889 1549 3392 5853 3861
357 427 564 1255 1466 1591 1996 2004 1598 1528 1372 1320 1814 2106 1858 2024 1562 1485 1662 1634 1319 1519 869 1454 1354 972 1641 1987 2874 3193 3119 3162 3200 3332 3032 3159 4138 4278 3945 4533 3931 4438 4627 4386 3817 3629 4473 3440 3722 3974 4652 4046 3165 1375 1474 1456 1808 1071 2338 3605 1062 1336 938 1556 1306 665 303 237 219 111 414 695 724 873 1057 1449 1257 1542 1114 903 1476 2894 3256 3525 2975
520 454 641 918 1129 2053 2314 2408 1991 1575 1652 1873 1990 1558 1814 2240 3146 2440 2684 2104 1523 2163 2711 2580 1784 1458 1554 1518 3116 3210 2888 2647 2582 2735 2577 3589 3468 3952 3804 4192 3833 4382 4901 4902 4312 4345 4261 4406 3502 3397 4109 3521 2811 644 1271 2470 2320 2894 1512 1686 944 1151 1953 2682 2134 198 318 94 162 10 71 150 74 366 1297 976 1040 1014 1171 1336 2891 3874 3554 4213 2402
288 446 609 708 1285 1557 2185 2516 2334 1860 1797 1915 2249 2636 3016 3314 3684 3555 3227 2860 2376 2249 2208 2116 1586 1830 1599 1998 2626 2903 2896 2364 2295 2309 2454 3788 3838 4215 3882 4284 4678 4654 4706 4768 4695 4026 3299 3348 3533 4409 3815 3972 2768 2729 1840 1858 2106 3652 3646 3902 1977 2936 1982 1122 917 2099 620 116 76 6 250 194 234 636 1333 910 802 868 672 1413 2727 3918 4088 3957 3793
270 312 507 490 1602 1498 2211 2858 2588 2180 1724 1905 2678 3214 3456 3472 3479 3529 3444 2687 3064 2602 2153 2116 1431 1378 1312 1662 2313 2304 2113 2106 2382 2566 2732 2971 3854 3358 3213 3554 4211 4464 4670 4237 3597 3403 3634 3780 3209 3298 4081 3299 4143 3629 1134 1623 947 2587 3166 3588 3347 3252 3941 2851 1934 3273 2461 1032 244 0 0 72 56 722 1080 408 677 734 1155 1060 2710 3492 3501 3746 3754
147 224 320 420 1826 1797 2247 2656 2930 2738 2216 2784 3096 3426 3055 3100 2745 2598 2733 2549 2629 2647 3676 2311 2154 1569 1531 2096 2189 2186 2720 1788 1757 2328 2852 3283 3708 3453 3510 3853 4318 3673 4229 4661 4362 3256 2318 2317 3352 4194 3974 4244 4436 4826 3657 2175 3056 2633 1818 1968 2365 2218 2532 3790 3371 2086 1838 1632 761 614 0 249 256 241 653 465 456 588 1048 1384 2214 2628 2982 3252 2744
232 241 227 335 2052 2740 2784 3101 3212 3125 2702 3145 3248 3286 3158 3102 2682 2318 2414 2360 1499 2872 2942 3010 2204 4130 3348 1796 1795 2165 2564 2506 2223 3005 3122 3304 3328 3873 4136 4262 4096 3165 3766 4278 4192 3355 3665 3706 3488 4108 5004 5823 4939 4226 4473 3522 3102 3685 2479 2398 1383 927 1090 1555 2494 1714 2512 1877 2162 1776 604 69 64 267 367 288 114 214 701 148 991 1869 2353 2064 2195
261 264 219 731 1757 2272 2852 3041 3058 3639 3094 3066 2992 3016 3095 3032 2715 2027 2471 2310 3092 3236 3274 2718 3037 2704 2597 2999 2306 1880 2651 3111 2693 2463 3055 3138 3773 4010 3928 4307 3544 3312 4256 3694 3760 2958 3135 3454 4118 4988 4458 4220 4933 5021 5150 4746 3022 2151 2778 3110 3038 2850 1282 885 1552 1872 2228 2716 2674 1206 1095 727 461 576 523 290 737 612 881 686 1796 1180 3161 2290 2793
268 367 298 534 1015 1930 2593 3061 3139 3600 3287 3070 3076 3050 2824 3097 2912 2215 2250 2556 2089 3272 3078 3126 3092 2974 2803 3186 3566 3708 2318 3559 2650 3069 3404 3154 3336 4128 3808 3530 3973 3338 3580 3788 2742 3248 3474 4115 3168 4316 4083 4723 4566 4902 4274 4290 4133 3374 2373 3793 4692 4162 3134 2126 1098 962 1425 2422 2369 1316 740 431 1421 870 1202 771 651 569 282 581 1449 765 857 2153 3093
356 357 366 718 1085 1444 2051 2756 3247 3833 3551 3098 3124 2881 2842 2592 2559 2254 2030 2298 2575 2878 2912 3599 3424 3163 3621 3429 3470 3755 3236 3251 2460 2890 2980 2520 3243 4458 3676 2940 3132 3941 4352 3491 3699 3169 2785 2624 2494 4259 4504 4661 4578 4466 3652 3733 3707 4366 2126 3762 4068 2664 2432 1877 2302 1971 1627 1861 2115 1411 1310 1303 1022 1218 1394 1025 1644 386 640 524 737 564 1154 1022 1431
Wind_Speed
9 6 6 4 3 2 2 1 2 3 4 4 4 5 6 5 6 9 10 9 10 8 8 9 7 6 10 13 16 16 16 15 13 12 11 12 12 13 14 14 14 14 14 13 12 12 11 11 11 10 10 11 8 7 6 7 8 8 9 9 7 6 5 5 6 7 8 7 8 7 5 4 5 5 6 5 5 5 4 3 3 1 1 2 7
8 6 4 3 2 2 3 2 1 2 2 2 2 2 2 2 3 5 5 3 2 2 7 5 4 5 11 15 16 16 15 14 13 12 11 11 12 13 13 13 13 13 12 12 12 11 11 10 11 11 10 11 7 7 6 6 8 9 9 9 7 6 4 6 7 8 8 8 7 7 6 5 5 5 5 5 5 5 3 3 7 1 3 5 7
5 3 3 2 3 2 2 2 2 3 2 2 0 0 1 2 2 1 3 3 2 2 5 4 4 5 11 15 16 15 14 13 11 11 11 11 12 13 13 12 12 12 11 11 11 10 10 9 10 10 10 9 8 7 6 6 6 8 8 8 8 7 5 6 8 7 7 6 6 5 5 5 4 4 5 5 6 6 5 6 6 6 3 6 7
6 3 2 2 3 2 1 1 2 1 2 2 0 2 2 1 2 4 4 4 4 4 4 5 5 5 10 13 13 13 12 10 10 10 11 11 12 12 12 11 10 11 10 10 11 10 9 9 9 9 8 8 8 7 6 6 6 7 7 7 6 6 5 4 5 4 3 1 0 1 4 4 3 5 6 7 8 7 9 7 7 7 6 6 8
7 5 3 2 1 1 2 1 1 0 1 2 0 3 4 4 5 7 5 4 5 5 4 5 4 5 10 11 11 10 10 10 10 11 11 11 13 11 11 11 10 9 9 9 9 9 8 7 7 9 8 7 7 7 6 6 6 7 7 7 6 5 3 3 3 3 3 2 3 2 4 2 4 8 9 9 8 9 7 7 7 6 7 7 7
7 5 3 1 0 1 2 2 1 1 2 2 2 3 3 4 3 3 1 2 3 3 4 4 5 7 9 9 8 9 10 9 8 10 11 12 12 11 10 9 9 8 7 7 8 8 8 7 7 7 7 8 8 7 6 6 6 7 7 6 5 3 2 3 3 3 3 2 2 6 3 2 4 7 10 8 7 7 7 6 6 6 7 8 7
8 5 4 3 2 1 1 1 1 1 1 1 1 1 2 1 2 2 2 2 3 1 1 5 6 7 8 9 9 10 9 9 8 10 11 12 12 11 11 8 8 8 7 5 6 7 8 8 7 6 6 8 8 7 5 5 6 6 5 3 3 4 5 5 6 4 4 5 8 6 4 2 3 4 9 8 8 7 6 6 5 5 5 5 6
7 5 4 3 2 2 2 0 1 0 0 1 3 3 3 1 2 2 2 2 2 6 3 5 6 10 9 7 10 10 9 9 10 10 12 12 12 11 11 9 7 7 7 6 5 6 8 8 6 7 7 7 8 7 6 5 5 5 3 2 2 4 6 10 10 7 5 7 7 7 3 2 3 5 7 8 7 6 6 5 4 5 4 4 5
3 6 5 3 2 4 3 2 2 2 2 2 1 0 2 2 2 1 2 2 4 7 5 6 7 10 11 9 11 10 10 10 10 11 12 12 12 12 11 9 7 7 7 6 5 6 7 7 7 7 7 7 7 7 6 4 4 4 3 3 4 3 7 8 8 7 8 6 5 5 1 1 3 4 6 7 5 2 3 4 5 6 5 5 5
6 4 4 2 3 7 6 5 4 3 4 3 2 2 2 3 3 3 3 5 6 7 7 8 8 11 11 12 11 12 12 11 11 12 12 12 13 12 11 10 8 8 7 7 6 5 7 8 8 7 7 7 7 7 6 4 3 3 4 4 5 6 4 3 6 10 8 3 6 2 1 5 3 3 6 6 6 6 7 6 5 4 3 5 4
7 4 4 4 7 8 7 6 6 5 4 4 4 4 3 2 4 4 4 5 6 6 7 7 8 10 13 11 11 11 11 11 13 13 13 13 14 12 11 10 10 9 9 8 8 6 7 7 8 8 7 8 7 6 5 4 3 4 5 6 7 8 2 2 7 10 4 3 1 1 4 8 3 3 6 6 5 5 6 6 5 4 4 3 3
6 5 4 3 8 8 7 5 5 4 4 4 5 4 3 3 3 3 3 3 5 5 6 7 7 8 10 12 9 10 10 10 11 10 12 13 14 13 11 11 10 11 11 11 9 7 8 8 9 9 8 8 7 6 5 5 4 4 4 6 6 3 8 8 7 9 4 4 2 2 3 3 3 3 6 5 5 5 6 5 4 3 2 3 3
7 5 4 4 4 6 6 6 5 4 4 4 4 3 3 3 3 3 4 4 5 6 6 6 8 9 8 8 7 7 7 8 9 8 9 11 12 12 11 11 11 12 12 11 10 9 9 9 9 7 7 8 7 6 6 6 5 5 5 6 7 5 3 4 7 8 4 4 2 2 2 3 3 4 6 5 5 5 5 3 3 2 3 4 3
6 5 4 3 2 6 6 6 5 4 4 5 5 4 3 3 4 5 5 4 3 4 5 6 6 7 5 6 7 6 9 8 8 10 10 10 11 10 11 10 10 12 12 10 11 10 9 9 9 7 7 6 6 7 7 6 7 7 8 8 10 0 6 2 6 7 5 2 2 3 3 4 2 4 6 5 5 4 3 2 2 2 3 4 3
7 6 5 5 3 3 7 6 5 5 4 4 3 2 2 3 4 5 3 3 4 5 7 6 5 8 8 6 7 6 8 7 9 10 10 10 9 9 9 9 10 11 12 12 12 11 10 10 10 7 6 6 7 8 7 7 8 9 9 11 10 12 11 6 5 9 4 1 2 2 2 3 3 5 6 5 4 2 2 2 3 4 3 3 4
8 6 5 5 4 3 3 5 4 3 2 3 3 3 4 4 3 2 5 5 7 6 7 9 10 11 11 9 8 8 9 9 10 11 11 10 9 8 7 7 7 9 11 12 12 11 10 10 9 7 7 7 8 8 7 7 8 10 10 11 11 11 7 5 6 6 2 3 4 4 3 2 3 5 5 4 2 0 1 2 3 3 3 3 5
7 5 5 4 5 3 3 2 2 2 1 2 2 2 3 3 3 3 6 7 8 8 9 11 10 15 12 10 10 10 10 10 9 10 10 10 9 7 6 6 5 8 9 10 10 9 9 9 8 7 7 7 7 6 7 8 10 11 11 13 13 14 12 12 3 3 4 4 3 5 4 3 2 5 5 2 1 1 2 3 3 4 5 5 6
5 6 4 5 4 3 2 3 5 5 3 2 3 3 4 3 3 4 5 7 9 9 10 11 12 15 17 15 14 12 11 11 9 8 8 8 7 6 5 3 4 6 7 9 9 9 8 8 7 6 6 7 7 7 7 8 11 13 13 13 14 15 14 11 2 4 3 5 6 5 5 2 3 4 2 1 2 3 3 4 4 6 6 7 7
5 4 5 5 4 3 3 3 4 5 5 4 4 4 3 4 5 7 8 9 10 10 11 13 15 15 15 13 14 11 9 9 7 6 7 6 5 4 4 2 1 4 6 7 7 6 5 5 6 6 6 7 8 8 8 10 11 13 14 15 17 18 19 13 3 2 2 5 5 5 4 2 3 2 1 2 3 4 4 5 6 7 8 8 8
4 5 4 3 3 2 3 4 5 6 6 5 4 4 3 3 5 6 7 9 9 10 12 13 12 13 14 13 12 8 7 5 7 4 5 6 4 2 3 2 1 3 5 5 6 6 6 7 8 8 8 9 9 9 9 11 13 15 15 17 18 19 16 8 7 6 5 4 4 5 3 3 2 1 3 4 5 5 5 6 7 8 8 9 8
2 3 3 2 2 2 4 4 5 6 5 4 4 3 4 5 4 6 6 6 8 11 16 11 8 10 11 11 8 2 1 1 1 1 1 1 2 3 2 2 3 5 6 7 7 8 8 9 10 10 10 9 8 8 10 13 14 15 17 17 19 17 11 9 5 3 4 5 4 4 3 2 2 3 5 6 7 6 7 8 8 8 8 9 10
2 2 2 4 5 5 5 5 5 6 5 4 4 3 5 5 6 5 4 5 7 13 12 7 7 5 9 4 3 2 2 4 4 2 5 3 3 2 2 2 4 5 7 8 9 9 10 11 12 12 12 11 9 10 11 14 17 17 18 19 16 17 11 10 7 4 2 4 4 4 3 3 4 5 6 8 8 8 9 10 10 9 10 11 11
3 3 4 5 5 5 4 5 5 5 4 3 3 4 5 6 5 5 4 5 6 9 8 9 9 7 6 6 5 5 5 6 6 5 6 2 3 3 3 3 4 5 7 9 11 12 13 14 15 15 15 15 13 15 12 13 15 19 19 17 18 14 13 8 7 4 3 3 5 5 4 3 5 6 8 9 10 9 11 12 12 11 12 13 12
5 5 4 4 3 3 4 4 4 4 5 4 3 4 7 7 5 5 5 6 5 3 7 7 7 7 8 9 7 7 7 8 4 4 3 7 6 3 2 3 4 6 8 12 13 14 14 15 15 16 16 15 15 15 17 16 15 15 15 17 14 13 13 9 5 3 4 3 4 6 4 6 6 9 9 10 11 12 11 14 14 15 14 14 14
3 4 2 3 5 4 5 5 4 2 4 4 3 4 8 9 5 4 4 4 4 7 6 7 9 9 10 10 9 9 9 9 9 9 10 10 9 8 8 10 11 12 11 14 15 15 16 14 15 15 15 16 17 17 16 18 18 16 16 14 13 13 8 9 4 3 3 5 6 7 7 7 9 11 11 11 12 12 13 15 16 17 16 15 16
3 3 4 7 6 5 6 5 4 4 4 5 3 4 9 10 7 5 4 4 6 6 6 7 9 11 10 9 9 9 10 11 11 11 12 11 10 10 10 10 11 12 14 14 15 16 16 15 14 14 14 17 17 18 20 17 14 14 15 14 14 13 7 8 6 3 3 6 7 9 8 8 9 12 11 13 13 13 14 17 17 16 17 16 16
3 4 5 5 8 9 6 5 4 6 7 5 4 6 9 12 10 6 6 7 8 7 5 6 10 9 9 9 8 11 12 13 14 14 13 13 11 11 12 11 11 13 14 14 15 15 16 14 15 15 17 19 20 17 20 16 15 13 14 14 13 9 9 6 5 3 5 7 8 11 9 9 9 11 13 13 14 14 16 18 17 17 17 17 16
3 6 5 5 5 8 7 5 4 7 8 7 8 6 6 12 11 5 7 9 10 9 6 6 9 9 9 11 9 11 12 13 15 15 14 13 12 12 13 12 12 13 15 15 15 15 15 16 16 17 21 22 16 20 17 19 15 13 11 12 11 11 7 8 7 4 6 8 8 10 9 8 10 11 13 14 15 16 17 18 18 17 18 17 18
6 7 5 8 10 8 8 5 2 3 5 7 8 5 5 11 11 9 10 11 10 9 8 8 9 9 10 12 13 12 13 13 14 17 15 15 15 14 13 13 13 13 14 15 15 14 16 17 19 18 20 21 20 19 21 17 13 12 11 9 8 10 8 8 12 6 7 7 8 10 10 9 11 12 13 15 15 17 18 17 18 17 17 17 17
6 7 8 5 9 9 8 8 4 4 6 9 9 7 8 11 12 13 11 11 11 10 9 9 9 10 11 14 15 11 14 13 14 19 17 15 16 15 15 14 13 13 14 14 15 16 17 19 21 21 21 22 23 22 20 17 12 12 11 8 7 nan 9 9 11 9 5 7 7 8 11 10 11 12 13 15 16 17 18 18 17 17 17 17 17
6 7 7 7 6 10 10 9 7 7 6 8 11 13 12 11 11 11 12 12 12 11 11 11 10 11 12 14 16 14 14 13 14 20 16 15 17 17 16 15 15 15 17 17 17 19 18 21 21 22 22 23 21 20 18 16 11 11 10 7 9 8 10 10 9 9 6 5 7 8 10 10 10 12 13 15 16 17 17 17 18 18 18 18 18
4 5 4 5 7 8 9 9 11 14 12 10 14 16 13 10 9 10 14 12 13 13 12 12 12 11 11 14 15 16 14 15 15 16 17 16 17 18 16 17 19 18 19 19 18 18 20 19 20 20 21 21 18 19 19 13 13 9 11 8 7 9 10 12 11 7 8 5 7 8 8 9 10 12 13 15 17 17 17 17 17 18 18 18 18
2 5 5 6 6 6 6 8 8 9 10 9 14 9 7 8 10 10 10 11 14 14 13 13 12 11 12 13 16 16 14 14 15 15 18 18 17 17 19 18 18 17 19 18 19 21 19 20 20 21 22 20 17 16 16 11 13 11 7 9 9 9 12 10 7 nan 5 7 7 6 7 8 9 11 13 14 17 17 16 17 17 17 17 17 17
2 2 6 6 4 3 4 5 8 9 8 10 7 7 8 7 9 9 10 11 12 12 12 13 12 12 12 12 12 12 12 13 16 17 18 17 18 19 17 17 18 17 19 20 22 21 20 20 18 20 20 19 14 14 16 9 10 12 9 8 8 10 12 9 8 9 6 7 6 6 6 6 7 8 10 14 15 15 16 15 15 16 15 16 15
1 2 5 6 5 5 4 5 7 7 7 5 5 6 7 6 7 10 10 10 11 11 11 12 13 12 12 12 12 12 13 14 17 18 18 18 18 17 17 17 17 17 17 18 21 20 20 21 18 21 17 16 14 15 14 10 10 11 12 8 8 12 10 11 7 9 7 6 8 6 7 5 6 6 7 6 11 14 13 12 13 13 14 15 15
2 3 5 6 5 5 6 6 7 7 5 3 3 6 4 3 7 8 9 11 11 10 12 12 12 12 12 12 12 12 14 16 17 18 18 20 17 16 15 15 16 17 15 16 18 18 17 17 19 18 18 17 16 10 12 10 9 7 9 7 9 12 5 8 8 8 4 8 6 7 7 5 4 5 5 5 4 7 12 11 11 12 13 13 13
5 5 4 5 5 6 6 9 9 7 6 6 5 5 3 5 7 7 8 12 11 11 12 12 12 12 12 11 13 14 15 17 19 18 22 17 17 15 15 15 13 15 16 16 17 16 15 15 17 14 14 14 17 13 9 9 9 7 9 10 8 12 7 10 12 7 7 8 6 7 5 7 4 4 3 3 2 2 8 10 10 11 11 11 10
6 6 5 5 7 6 7 7 7 7 5 4 3 4 4 6 6 6 9 10 11 11 11 13 13 12 12 13 13 14 15 17 19 20 24 19 17 15 14 14 14 14 14 15 17 15 14 14 15 12 12 12 13 12 10 9 9 8 7 3 9 10 7 8 13 6 6 9 9 7 5 4 4 5 6 3 5 4 4 9 11 10 9 9 8
4 7 6 4 5 4 5 5 7 7 6 5 5 4 5 6 5 6 7 9 9 10 11 12 12 13 12 12 14 14 15 16 16 19 21 18 18 15 14 13 13 12 13 14 15 15 14 14 14 12 11 11 11 12 9 11 7 8 7 4 6 12 8 9 11 12 9 8 7 7 4 5 6 5 3 4 5 5 5 5 5 5 6 11 9
5 9 6 6 6 7 5 3 4 6 5 6 5 5 6 6 6 5 7 8 8 9 10 11 12 12 10 12 14 13 13 14 14 16 16 18 15 14 12 13 12 12 12 12 13 13 13 13 13 12 12 12 11 10 8 9 4 7 4 4 5 10 8 9 12 8 12 5 6 10 6 5 3 2 3 6 0 5 6 6 6 5 6 11 15
10 9 7 7 7 5 5 4 4 5 4 5 6 6 6 6 5 6 6 6 7 8 9 9 9 9 10 11 12 11 12 12 13 12 13 13 13 13 11 11 11 11 10 12 11 10 10 11 9 10 11 11 10 9 7 9 3 5 9 4 5 9 7 11 11 9 10 8 4 8 8 3 2 5 3 3 4 3 5 6 7 7 9 11 14
9 7 9 6 7 6 5 5 4 3 4 5 6 5 5 5 6 6 5 7 7 7 7 8 6 7 8 8 11 9 10 10 11 10 9 8 9 9 8 9 9 8 9 10 12 10 6 7 8 9 8 11 8 8 2 4 7 5 7 6 6 8 7 9 12 12 12 6 5 7 6 5 4 4 2 2 2 5 5 6 7 6 9 10 11
9 7 8 7 9 5 5 5 3 2 2 3 5 4 5 4 3 6 6 6 7 6 6 4 3 6 6 7 8 5 8 8 8 9 8 7 7 8 6 6 7 9 7 8 11 11 6 7 6 7 9 9 8 5 2 5 6 7 5 3 4 4 7 9 12 10 7 5 4 4 7 5 6 5 4 4 4 7 9 8 9 10 8 7 8
8 7 7 8 8 8 7 6 4 2 1 2 2 4 4 1 1 5 6 8 4 6 6 4 6 5 6 6 3 4 7 6 6 7 7 4 4 6 7 5 6 8 6 6 9 10 7 4 6 7 7 7 7 4 6 5 4 3 4 5 4 5 4 7 10 6 7 nan 7 nan nan 2 nan 4 5 5 6 5 8 8 8 8 8 8 8
7 6 7 7 9 8 8 7 5 4 3 2 2 2 2 3 1 1 5 6 2 4 4 7 7 5 4 4 3 4 6 5 5 6 5 4 2 4 5 6 5 6 5 6 6 9 8 5 4 6 8 6 5 4 1 1 3 2 2 3 3 3 5 5 8 5 6 5 nan nan 4 1 4 2 2 4 8 8 10 10 11 9 9 10 10
6 6 6 6 10 8 9 9 6 5 4 3 2 1 2 3 2 1 3 3 3 4 6 7 7 6 5 5 5 6 6 4 4 6 3 2 2 1 3 4 5 5 5 5 6 7 9 6 3 4 7 5 6 5 3 2 2 5 4 2 4 4 5 6 3 4 5 7 4 nan nan nan nan 4 4 7 7 10 10 13 12 12 12 10 10
5 7 6 5 11 10 9 8 8 7 6 4 3 1 1 2 3 5 4 4 4 2 3 3 7 5 5 4 3 5 6 4 4 4 1 2 3 3 5 3 3 4 7 4 6 8 3 3 5 3 3 6 5 5 6 4 0 4 6 7 4 4 8 2 2 4 4 6 5 4 nan 3 4 7 7 6 4 6 8 13 16 15 15 14 12
7 8 7 6 12 10 10 9 9 8 7 5 4 3 3 3 3 4 3 4 5 3 2 2 4 6 6 4 5 5 5 5 2 2 0 1 2 4 2 1 1 3 5 4 3 6 5 3 3 3 1 3 4 3 6 5 5 3 5 6 1 0 2 3 4 4 3 2 4 4 4 nan nan 3 2 5 8 7 8 8 11 15 13 13 10
7 8 7 9 12 11 10 10 9 8 7 6 6 6 5 4 3 4 4 3 4 2 1 1 1 3 4 4 4 4 5 6 2 2 3 2 1 2 3 2 3 5 5 2 2 4 6 4 3 3 1 2 2 2 3 4 6 3 3 3 6 5 2 3 5 5 2 1 4 2 1 2 6 3 5 9 3 3 10 9 7 4 9 11 11
9 9 8 10 11 10 10 10 10 8 8 6 7 7 6 5 3 4 6 7 2 1 3 2 1 0 2 3 2 2 4 4 3 3 3 3 4 3 5 6 6 8 3 3 3 5 5 5 3 2 1 2 2 2 2 3 1 3 2 3 4 4 4 3 1 1 2 2 2 0 3 5 4 1 2 2 10 4 6 8 10 9 7 7 10
11 6 10 11 11 10 11 10 10 9 8 8 8 7 6 5 2 4 6 8 6 5 4 3 2 2 3 2 2 3 1 2 3 3 4 5 4 4 5 5 5 4 4 4 5 6 4 4 3 5 5 2 1 1 4 4 5 2 2 2 1 1 1 0 4 1 1 2 4 3 4 4 2 2 2 4 5 7 13 14 9 8 7 6 9
Wind_Direction
102 90 88 62 77 83 93 122 203 209 196 174 165 186 187 192 184 187 199 194 180 176 178 211 217 245 259 260 257 259 262 268 273 276 274 270 268 264 262 260 259 264 268 269 269 269 268 266 264 263 273 269 272 278 283 291 287 289 293 296 294 285 268 246 233 222 218 213 211 207 196 177 170 176 178 186 185 190 170 171 239 235 75 301 293
66 71 84 75 28 65 95 105 250 264 243 211 169 165 179 177 200 191 205 196 140 168 201 196 243 248 264 264 262 262 264 267 270 272 272 271 270 267 266 265 265 267 267 268 267 266 264 265 267 270 273 278 277 284 280 280 289 293 295 301 305 295 267 233 224 224 222 215 213 214 210 197 189 188 183 185 200 219 212 220 248 276 53 305 302
42 55 77 47 4 16 85 141 219 265 285 297 333 318 203 185 211 299 5 8 45 281 315 354 269 261 265 263 264 263 264 269 270 266 268 273 277 278 279 274 270 272 274 275 273 269 265 264 273 277 277 282 284 269 280 282 294 295 294 299 299 285 256 226 218 223 233 231 221 220 218 220 220 213 218 224 217 241 256 253 267 276 4 302 307
358 22 53 355 333 347 21 187 175 190 205 221 25 55 50 62 66 56 25 356 313 336 347 297 285 256 259 262 262 261 257 265 268 267 268 272 278 279 283 282 282 280 281 284 283 280 275 268 262 269 274 277 282 286 286 289 289 294 299 301 297 278 256 224 221 222 225 219 318 58 106 116 204 228 236 232 247 239 246 252 264 281 293 303 296
342 347 5 26 348 344 311 334 33 284 276 286 290 85 64 58 55 62 42 351 345 344 316 293 278 260 258 256 257 259 266 269 268 270 270 276 278 278 285 287 283 284 288 293 292 285 278 275 269 266 261 264 269 274 279 287 290 292 298 295 285 261 227 220 194 221 219 187 223 134 100 130 147 217 222 230 234 246 256 263 273 287 300 298 293
339 346 351 336 5 330 303 339 0 153 187 252 54 54 50 51 39 47 37 34 345 341 311 315 287 270 263 262 262 268 268 268 266 263 278 279 283 288 287 284 285 284 277 284 291 283 270 261 253 252 262 272 278 271 275 287 299 302 291 281 256 220 193 189 185 170 162 206 151 106 107 148 178 178 220 226 236 245 254 265 282 305 311 302 286
334 -0 358 3 63 55 73 51 326 258 52 37 51 146 189 106 65 52 44 30 19 232 310 284 278 270 263 272 275 279 275 273 269 278 284 285 288 294 283 280 281 278 277 281 285 277 263 254 254 261 266 271 277 275 272 278 289 291 294 276 232 186 150 142 138 128 145 114 110 98 105 157 172 167 222 223 220 227 255 269 287 298 298 291 281
339 360 358 24 61 33 89 0 236 236 106 179 201 207 190 135 66 43 21 9 58 311 286 271 277 271 257 259 282 284 282 291 284 286 288 292 293 289 289 286 281 281 282 283 276 271 262 261 262 268 274 276 271 270 267 270 272 278 284 275 221 216 164 176 169 145 136 111 92 99 110 153 171 162 221 234 241 243 250 258 275 279 275 277 275
328 338 352 353 344 307 317 295 274 287 233 208 208 231 22 32 33 38 334 317 283 258 270 278 278 284 287 297 289 291 296 293 289 286 290 292 290 290 288 284 273 269 275 279 275 268 266 266 271 273 274 274 272 267 260 257 260 257 240 190 176 188 187 162 154 139 115 114 122 104 91 160 190 175 219 234 232 221 280 322 316 286 279 271 267
1 338 329 356 333 306 311 324 320 322 322 323 357 16 37 26 343 329 308 269 267 281 282 287 295 296 288 284 295 299 296 293 289 286 285 285 288 288 284 280 269 249 242 269 271 264 266 268 274 279 281 279 266 250 247 235 237 234 225 194 170 169 216 191 114 100 105 105 83 111 198 248 187 189 234 243 245 254 287 296 305 309 307 269 259
350 322 308 302 309 318 324 330 332 332 332 331 351 11 27 350 297 298 296 285 283 293 302 307 307 304 301 300 306 301 299 294 291 287 282 282 283 285 281 279 264 249 245 247 262 249 251 262 261 262 261 261 256 244 235 220 213 219 201 179 166 179 208 78 94 108 136 131 176 171 247 243 162 159 242 254 271 282 280 281 279 270 260 240 199
286 284 289 307 312 319 330 334 330 325 323 334 338 341 313 289 287 302 314 309 312 319 329 333 328 325 319 326 334 318 302 294 279 276 281 281 287 279 273 269 260 255 245 243 249 245 252 261 263 260 249 242 233 222 211 204 197 198 185 158 151 65 115 122 125 119 118 99 139 211 242 233 191 220 250 260 270 278 273 267 260 245 213 186 173
291 296 308 313 328 324 331 337 329 331 337 324 320 301 294 303 313 326 335 351 345 347 348 353 347 347 338 330 328 319 302 283 290 289 289 297 292 286 274 267 263 249 239 249 250 241 248 255 256 257 247 232 223 210 205 195 181 174 160 148 144 271 154 144 109 100 116 159 165 229 224 168 187 241 259 270 281 282 277 264 246 204 180 171 164
295 307 308 311 342 319 322 324 325 322 328 323 309 303 316 336 351 7 -0 346 352 354 12 2 359 349 321 318 322 317 311 315 312 305 302 299 298 291 276 263 260 249 236 236 243 241 241 243 250 244 235 220 212 213 203 185 168 154 148 144 134 16 308 125 104 94 79 84 173 223 181 142 164 245 268 282 291 288 279 260 240 194 174 171 152
301 299 306 317 325 333 316 320 324 323 319 304 294 310 4 31 24 21 329 324 353 12 359 339 355 316 319 312 308 314 305 321 313 307 305 308 304 301 289 264 249 244 232 228 230 232 228 226 228 231 216 207 202 212 204 179 154 144 138 129 132 129 109 8 53 108 101 145 140 210 166 131 271 281 286 296 295 268 249 214 193 196 184 164 136
296 304 314 314 323 339 338 314 314 318 310 299 315 351 31 45 42 32 308 348 340 354 354 352 348 318 301 304 314 326 319 324 319 314 316 317 312 313 299 265 246 236 229 222 216 214 213 216 211 211 195 198 201 207 200 168 144 131 123 125 118 110 136 118 43 49 117 172 159 143 145 122 291 289 294 298 296 254 189 172 175 178 162 124 115
304 304 300 305 309 340 348 10 30 351 310 293 305 347 26 27 3 351 339 340 337 339 342 337 333 302 297 323 335 332 324 316 315 314 314 318 316 318 311 281 243 232 223 214 209 205 205 207 203 201 186 194 199 200 185 158 137 130 125 126 133 132 125 112 88 134 130 140 135 111 104 86 313 298 296 311 57 119 143 150 157 142 125 116 113
287 288 321 320 333 18 24 24 52 57 41 348 334 357 15 352 326 342 346 338 333 332 332 324 306 303 333 346 330 329 322 315 315 310 309 319 326 336 332 294 242 220 212 206 197 194 196 193 181 189 180 185 186 185 164 143 132 129 125 124 119 111 108 106 72 91 153 176 139 121 105 346 308 300 298 66 102 127 138 143 132 121 115 109 108
266 305 340 333 349 14 30 48 53 54 38 40 45 42 6 345 342 341 336 333 329 329 323 310 308 330 333 327 319 322 312 307 307 305 307 319 327 348 348 331 234 207 195 191 182 186 178 183 188 169 168 175 168 164 150 128 123 121 120 121 123 124 132 114 60 87 159 125 118 105 86 349 312 305 62 94 109 121 128 129 117 100 91 94 94
328 349 355 337 18 35 79 52 43 36 32 21 16 25 22 340 330 329 324 324 325 325 314 299 328 329 320 317 318 322 318 315 310 296 297 306 314 2 3 40 132 160 174 171 169 174 177 170 166 159 164 165 158 144 130 126 115 114 116 116 116 121 113 130 153 191 144 120 103 97 33 332 327 75 98 96 113 116 118 111 98 88 88 90 90
53 1 1 20 18 35 53 61 47 30 18 1 357 6 12 331 340 321 317 316 321 311 285 310 346 322 317 322 318 346 0 48 111 144 252 132 340 1 17 61 110 130 151 163 165 164 164 159 154 154 155 153 142 123 113 109 110 101 102 104 109 114 111 115 124 124 117 101 87 70 14 352 60 86 95 107 105 111 110 98 87 83 78 80 82
27 85 55 25 30 23 35 51 59 41 27 9 19 31 39 8 8 10 359 344 326 306 312 4 10 12 330 355 53 20 76 82 87 74 108 92 82 46 69 98 119 134 145 151 149 148 147 149 145 144 142 126 108 113 106 98 92 95 95 99 109 104 106 110 128 126 95 95 77 56 12 41 74 83 95 99 105 106 102 92 88 82 76 74 77
330 24 55 39 41 34 38 44 58 61 41 16 30 33 44 49 22 27 10 354 352 323 330 7 26 25 40 58 73 73 67 76 89 93 95 62 87 62 90 112 121 130 132 133 139 141 145 142 140 137 130 116 111 116 108 101 100 86 93 102 104 111 116 120 113 102 97 73 81 35 47 69 78 91 98 105 104 105 97 91 85 82 81 82 82
329 -0 25 58 68 59 46 62 60 61 83 70 37 56 66 65 49 48 37 12 353 15 343 29 62 46 53 64 63 71 69 82 44 7 69 108 100 76 93 113 117 124 132 132 134 142 140 137 132 124 121 118 109 107 109 113 99 99 103 100 101 100 100 108 117 116 83 46 78 42 59 72 85 89 100 103 109 99 91 84 86 86 87 91 89
332 347 31 359 41 59 49 56 73 102 87 67 60 80 92 89 72 55 51 28 6 24 21 53 63 57 54 67 65 66 70 82 85 94 103 100 98 103 109 117 121 122 125 129 128 136 135 132 124 120 119 114 107 104 101 91 93 93 96 104 97 99 124 122 99 78 93 107 91 55 54 73 90 103 103 107 103 102 92 85 85 87 90 91 90
344 2 349 352 353 47 44 71 74 67 83 89 76 79 87 101 103 96 82 48 36 42 51 57 61 65 68 70 71 80 86 92 95 98 101 100 95 95 97 107 113 117 119 125 131 132 129 122 117 111 113 105 104 101 93 102 117 122 117 116 111 112 103 82 77 68 92 96 86 50 57 68 90 106 109 105 99 96 91 91 91 89 89 87 89
14 349 346 10 351 11 24 37 60 79 59 71 83 80 92 103 91 79 70 55 45 44 49 69 75 68 69 72 89 92 96 96 96 98 96 97 99 100 103 104 110 117 117 125 125 123 123 120 116 117 109 108 103 114 113 113 109 119 121 114 112 99 84 82 90 84 100 101 82 45 56 74 89 99 106 103 98 93 89 92 90 90 86 87 85
349 340 4 345 357 340 10 16 50 51 57 63 69 48 83 94 90 80 78 58 53 51 58 62 73 86 89 95 95 94 92 96 95 100 96 93 91 97 101 100 104 112 116 118 117 119 117 117 118 114 109 107 117 106 118 112 114 110 105 110 113 126 125 125 118 90 97 106 94 62 58 74 89 97 98 101 99 93 92 88 93 92 89 86 85
342 342 348 342 354 342 7 0 6 88 90 80 76 65 64 82 86 78 58 57 69 66 69 76 80 80 83 92 90 86 94 86 91 94 95 90 89 93 99 102 100 103 106 109 111 117 114 116 117 117 120 121 114 113 106 114 118 118 102 96 90 89 112 109 108 105 98 104 98 78 62 70 86 94 98 97 95 95 91 92 92 91 90 89 88
352 340 332 14 352 340 343 341 336 64 99 117 112 95 66 57 61 66 64 65 70 71 72 83 85 82 83 86 79 76 81 82 90 94 88 84 87 91 97 98 99 100 101 106 107 113 112 108 113 129 125 123 124 126 122 116 117 113 108 87 87 nan 96 104 107 122 107 104 110 97 62 76 86 96 96 94 92 92 96 96 95 92 91 90 89
348 339 340 357 352 342 349 342 347 14 45 79 94 84 63 50 57 64 71 71 71 76 80 82 77 81 83 80 84 78 68 77 66 76 85 86 90 95 99 99 101 102 104 107 107 103 124 131 129 119 116 122 120 116 117 119 118 98 95 106 102 100 96 98 113 99 104 106 111 103 92 77 89 93 94 93 90 90 92 92 90 91 90 90 90
339 323 342 356 2 334 343 350 346 354 9 22 54 62 55 49 45 53 66 68 75 80 81 83 87 90 81 82 83 88 83 72 72 78 85 86 90 96 104 104 102 100 99 106 116 120 111 114 116 115 116 112 117 114 113 115 104 116 109 113 97 103 107 106 99 135 145 124 99 112 115 104 87 89 90 89 87 88 88 89 90 90 92 93 94
304 329 343 354 343 332 339 348 359 7 9 13 22 41 59 56 59 54 62 60 72 81 84 87 95 95 95 89 85 82 84 84 82 85 87 91 97 100 93 94 101 110 117 120 117 118 116 115 122 119 111 111 112 116 114 111 120 114 95 88 128 130 119 114 129 nan 110 111 96 99 108 113 113 89 83 83 83 83 84 86 89 91 92 93 95
269 348 357 330 345 330 11 5 11 9 7 6 35 35 35 45 68 66 66 66 73 79 87 97 97 98 98 96 100 99 97 95 94 94 100 104 99 97 109 115 118 114 111 116 114 114 119 118 115 117 124 120 123 116 111 115 102 101 111 112 108 95 96 110 134 129 92 104 110 85 94 112 114 116 107 82 80 80 81 83 86 90 91 92 92
252 343 330 311 337 355 2 13 17 356 4 1 2 36 31 33 56 74 68 73 73 77 78 82 89 92 96 102 103 102 94 92 97 100 101 96 101 107 106 108 108 110 115 119 124 127 129 130 130 127 121 121 130 133 120 134 134 130 128 115 103 101 116 142 117 105 135 106 92 91 76 83 101 103 106 107 87 80 76 75 81 85 86 85 87
304 294 299 326 337 332 346 346 355 5 355 23 19 51 23 63 81 72 73 72 72 72 77 76 82 86 93 102 105 104 104 106 106 105 102 105 108 105 116 112 114 117 119 123 121 123 127 128 129 133 137 138 140 127 127 114 95 92 99 115 101 99 105 94 106 94 107 104 118 115 114 95 75 86 76 93 93 77 62 64 66 72 77 81 83
275 279 300 308 317 328 331 341 352 349 8 356 10 53 58 37 59 60 55 75 71 72 78 81 82 85 95 100 104 108 112 111 116 117 116 110 111 117 108 108 118 118 127 127 125 125 127 133 127 132 132 138 136 124 113 108 106 83 70 70 102 117 120 132 121 133 147 131 85 74 94 109 145 103 99 61 72 60 44 46 44 52 62 71 75
258 277 279 301 305 330 340 337 330 350 354 21 54 45 51 64 70 84 79 68 66 67 73 81 87 90 94 99 101 108 112 119 119 126 123 116 118 117 120 128 128 133 132 130 127 127 134 137 131 135 144 138 128 133 119 100 74 72 72 60 83 101 106 105 123 124 98 95 96 75 68 72 92 78 85 30 11 350 14 21 28 31 40 47 56
249 273 275 268 280 309 287 309 332 340 356 19 48 59 53 74 60 62 81 88 86 81 78 83 87 85 85 91 98 103 109 113 118 116 124 131 128 128 129 134 130 132 133 133 134 136 138 139 138 141 137 124 111 110 127 118 132 97 44 62 117 129 141 131 104 110 97 76 113 102 27 61 56 78 120 137 339 351 353 337 341 349 8 26 31
239 251 249 260 253 275 296 312 317 327 352 20 43 49 67 64 51 65 78 80 83 81 75 76 78 86 80 84 93 101 105 107 110 116 126 129 126 130 132 130 132 131 134 135 136 135 141 131 124 127 126 112 108 101 81 92 56 99 121 71 81 97 115 96 100 112 119 139 108 106 100 50 57 76 49 71 318 322 346 327 319 332 349 358 10
242 257 261 263 273 277 292 306 304 317 0 28 38 46 55 70 65 47 62 81 82 82 70 65 66 73 72 80 88 92 96 100 104 109 116 128 136 136 134 132 130 136 138 134 130 124 116 122 115 110 117 106 94 83 89 90 70 89 106 82 86 98 106 109 109 100 78 91 88 91 94 66 42 51 43 77 325 315 317 309 296 325 359 348 352
253 265 262 254 261 277 292 289 286 314 349 28 43 39 58 66 74 83 61 65 81 86 93 81 55 52 76 82 87 83 90 98 100 109 108 112 111 115 124 121 130 128 129 127 120 115 113 118 123 124 105 107 100 102 89 127 93 53 69 66 71 78 80 81 73 67 73 61 52 81 130 88 353 17 2 2 28 315 300 301 320 341 355 338 341
271 272 268 268 262 263 247 253 262 303 334 11 50 36 39 50 77 98 76 77 76 94 79 117 71 38 42 68 84 89 88 90 95 97 102 104 126 115 111 130 139 124 142 145 137 133 148 112 126 113 114 101 93 91 49 57 74 49 57 63 74 74 99 100 100 89 70 44 64 58 51 35 343 337 352 4 15 340 331 338 353 347 338 326 332
261 262 269 268 256 235 244 245 250 262 275 320 45 23 23 358 323 40 82 83 71 82 111 97 85 36 33 44 83 72 74 67 67 71 84 112 93 113 137 155 150 146 142 130 117 112 109 106 105 105 100 105 100 36 48 4 97 143 83 79 58 75 82 70 71 73 79 nan 54 nan nan 319 nan 4 339 358 353 317 321 341 330 338 351 332 349
265 266 264 260 242 264 254 244 234 233 237 280 3 17 340 318 46 67 76 73 33 59 97 99 68 70 37 53 35 55 68 64 56 55 64 46 80 137 145 141 127 116 113 103 108 114 126 118 104 113 108 107 109 124 93 28 348 58 60 122 148 145 106 103 122 106 124 101 nan nan 132 312 326 334 41 312 320 332 340 337 341 355 356 356 2
266 269 265 256 261 254 260 250 233 222 241 266 265 304 359 318 332 350 42 6 57 43 47 64 59 59 46 46 31 39 56 53 65 71 2 26 327 66 98 90 77 90 103 105 116 119 87 81 58 76 109 114 123 152 91 64 342 61 38 43 28 26 54 95 113 97 98 106 132 nan nan nan nan 2 18 339 339 342 348 337 350 356 352 1 11
262 270 268 259 264 254 255 257 240 231 243 249 274 233 299 298 330 336 1 3 6 55 135 92 94 73 92 48 64 58 68 53 49 72 31 3 340 3 39 42 131 138 96 80 92 93 112 130 116 89 109 115 140 133 129 124 328 88 26 15 6 47 20 26 71 106 111 122 142 105 nan 67 331 350 7 354 332 327 343 346 350 1 350 355 13
270 270 266 264 262 253 253 248 239 237 239 247 253 249 256 278 313 322 345 349 359 340 1 63 112 135 125 44 68 60 73 86 34 96 32 352 29 16 46 323 182 88 99 113 121 131 135 117 72 50 75 122 119 141 123 131 122 78 189 153 117 113 148 122 317 33 59 119 108 131 162 nan nan 324 293 304 309 352 339 3 351 354 343 345 358
263 269 261 258 265 265 254 247 244 238 246 257 247 255 249 262 286 290 302 273 224 307 288 214 165 139 140 92 69 49 77 88 74 44 46 2 31 44 42 5 16 57 72 33 83 87 106 128 131 154 263 75 44 95 81 112 148 177 225 169 170 159 69 76 330 39 327 66 123 131 117 183 258 171 221 293 321 340 347 341 328 324 328 344 344
255 270 260 264 269 268 265 261 253 236 243 249 241 253 259 257 261 278 292 274 289 284 285 288 280 95 83 106 125 95 41 72 58 57 51 31 22 38 59 36 23 38 359 42 41 71 61 54 30 303 249 97 86 37 35 105 158 130 178 263 193 175 174 151 103 204 214 357 13 320 236 231 221 68 269 226 286 10 4 341 341 337 344 343 326
258 254 266 268 268 266 273 269 264 244 246 250 248 249 252 252 240 261 279 299 321 288 272 293 280 347 63 5 25 63 8 52 52 47 43 35 29 25 55 56 49 45 16 12 55 52 79 80 5 358 30 -0 308 287 71 38 29 338 137 284 316 126 316 315 261 197 17 194 210 225 218 227 328 262 295 8 331 16 319 11 328 345 342 337 349